User: anonymous   Login
Location: Bu�n Treun
(12.1333°N, 108.3167°E)
Time: 00:42:52
(UTC+00:00)
Language:

Cosmos 1538 Rocket - Orbit

View from above orbital plane
View from above orbital plane
View from above satellite
View from above satellite

Ground track
Ground track

The orbit data is extracted from the following two-line orbital elements,

1 14760U 84019B   20273.47839782 -.00000081 +00000-0 -18656-4 0  9993
2 14760 074.0407 079.8432 0027887 002.8175 357.3130 14.35887584915640
Epoch (UTC): 29 September 2020 11:28:53
Eccentricity: 0.0027887
inclination: 74.0407°
perigee height: 752 km
apogee height: 792 km
right ascension of ascending node: 79.8432°
argument of perigee: 2.8175°
revolutions per day: 14.35887584
mean anomaly at epoch: 357.3130°
orbit number at epoch: 91564

The dashed part of the orbit path shows where the satellite is in the earth's shadow,  

DLR